Location: Davidschlag
(48.4333°N, 14.2833°E)
Time: 21:34:31
(UTC+00:00)

Meteor 1-11 Rocket - Pass Details

Date: 27 February 2020
Orbit: 831 x 916 km, 81.2° (Epoch: 29 March)

Event Time Altitude Azimuth Distance (km) Brightness Sun altitude
Rises 19:07:33 0° 185° (S) 3,404 6.7 -24.6°
Reaches altitude 10° 19:09:58 10° 184° (S) 2,462 6.0 -25.0°
Maximum altitude 19:15:31 78° 99° (E) 860 3.5 -25.9°
Drops below altitude 10° 19:21:04 10° 14° (NNE) 2,452 6.1 -26.7°
Sets 19:23:28 0° 13° (NNE) 3,389 6.9 -27.1°
